weather.gov     
National Weather Service

Terminal Aerodrome Forecast
NWS Homepage
This page is being discontinued on March 12, 2014.
The same data is available at this site. Please update your bookmarks.
Thank you, and we apologize for the inconvenience.
Please send an email to SR-SRH.Webmaster@noaa.gov with any concerns.


Current Version
Previous Version:    01  02  03  04  05  06  07  08  09  10  11  12  13  14  15  16  17  18  19  20  21  22  23  24  25  26  27  28  29  30  
   31  32  33  34  35  36  37  38  39  40  41  42  43  44  45  46  47  48  49  50  51  52  53  
[Printable]
467
FTUS41 KCTP 251942 AAA
TAFMDT
TAF AMD
KMDT 251942Z 2520/2618 29010G20KT P6SM BKN150 OVC250
     FM252200 28005KT P6SM OVC100
     FM260800 36006KT 5SM -RASN BR BKN025 OVC060
     FM261100 03007KT 3/4SM -SN BR OVC009
     FM261500 02008G16KT 1/2SM SN OVC006=


467
FTUS41 KCTP 251942 AAA
TAFMDT
TAF AMD
KMDT 251942Z 2520/2618 29010G20KT P6SM BKN150 OVC250
     FM252200 28005KT P6SM OVC100
     FM260800 36006KT 5SM -RASN BR BKN025 OVC060
     FM261100 03007KT 3/4SM -SN BR OVC009
     FM261500 02008G16KT 1/2SM SN OVC006=




U.S. Dept. of Commerce
NOAA National Weather Service
1325 East West Highway
Silver Spring, MD 20910
E-mail: w-nws.webmaster@noaa.gov
Page last modified: May 16, 2007
NATIONAL WEATHER SERVICE: for Safety, for Work, for Fun - FOR LIFE